Satellite: NOAA-11 Catalog number: 19531 Epoch time: 12109.81684607 Element set: 0892 Inclination: 098.7327 deg RA of node: 196.2216 deg Eccentricity: 0.0011775 Arg of perigee: 036.7270 deg Mean anomaly: 323.4705 deg Mean motion: 14.14960831 rev/day Decay rate: -2.07e-06 rev/day^2 Epoch rev: 21611 Checksum: 294
Satellite: NOAA-12 Catalog number: 21263 Epoch time: 12110.85923245 Element set: 378 Inclination: 098.7309 deg RA of node: 132.7914 deg Eccentricity: 0.0014149 Arg of perigee: 014.3572 deg Mean anomaly: 345.8491 deg Mean motion: 14.25489042 rev/day Decay rate: 1.11e-06 rev/day^2 Epoch rev: 8822 Checksum: 288
Satellite: MET-3/5 Catalog number: 21655 Epoch time: 12109.89396188 Element set: 0388 Inclination: 082.5613 deg RA of node: 194.0685 deg Eccentricity: 0.0014757 Arg of perigee: 108.8816 deg Mean anomaly: 251.3943 deg Mean motion: 13.17037513 rev/day Decay rate: 5.1e-07 rev/day^2 Epoch rev: 99409 Checksum: 331
Satellite: MET-2/21 Catalog number: 22782 Epoch time: 12110.43926111 Element set: 394 Inclination: 082.5449 deg RA of node: 079.1216 deg Eccentricity: 0.0021606 Arg of perigee: 320.9919 deg Mean anomaly: 038.9677 deg Mean motion: 13.83678945 rev/day Decay rate: -3.9e-07 rev/day^2 Epoch rev: 94104 Checksum: 316
Satellite: OKEAN-4 Catalog number: 23317 Epoch time: 12110.56268381 Element set: 863 Inclination: 082.5378 deg RA of node: 086.0040 deg Eccentricity: 0.0021143 Arg of perigee: 180.3310 deg Mean anomaly: 179.7895 deg Mean motion: 14.83689486 rev/day Decay rate: 9.52e-06 rev/day^2 Epoch rev: 94611 Checksum: 309
Satellite: NOAA-14 Catalog number: 23455 Epoch time: 12110.80662292 Element set: 860 Inclination: 098.8255 deg RA of node: 195.0382 deg Eccentricity: 0.0010119 Arg of perigee: 123.3484 deg Mean anomaly: 236.9140 deg Mean motion: 14.13890173 rev/day Decay rate: 5.9e-07 rev/day^2 Epoch rev: 89263 Checksum: 295
Satellite: NOAA-15 Catalog number: 25338 Epoch time: 12110.85115082 Element set: 230 Inclination: 098.6877 deg RA of node: 098.3228 deg Eccentricity: 0.0009745 Arg of perigee: 280.7551 deg Mean anomaly: 079.3007 deg Mean motion: 14.25054403 rev/day Decay rate: 2.02e-06 rev/day^2 Epoch rev: 72455 Checksum: 288
Satellite: RESURS Catalog number: 25394 Epoch time: 12109.96951797 Element set: 0098 Inclination: 098.3169 deg RA of node: 101.3346 deg Eccentricity: 0.0002372 Arg of perigee: 062.0674 deg Mean anomaly: 298.0745 deg Mean motion: 14.24282457 rev/day Decay rate: 2.3e-07 rev/day^2 Epoch rev: 71597 Checksum: 317
Satellite: FENGYUN1 Catalog number: 25730 Epoch time: 12110.93495564 Element set: 586 Inclination: 098.8431 deg RA of node: 070.9444 deg Eccentricity: 0.0017690 Arg of perigee: 167.9001 deg Mean anomaly: 192.2600 deg Mean motion: 14.09404149 rev/day Decay rate: 1.253e-05 rev/day^2 Epoch rev: 66640 Checksum: 292
Satellite: OKEAN-0 Catalog number: 25860 Epoch time: 12110.48085732 Element set: 604 Inclination: 097.9300 deg RA of node: 074.3478 deg Eccentricity: 0.0001934 Arg of perigee: 071.8426 deg Mean anomaly: 288.2993 deg Mean motion: 14.74153351 rev/day Decay rate: 4.54e-06 rev/day^2 Epoch rev: 68592 Checksum: 307
Satellite: NOAA-16 Catalog number: 26536 Epoch time: 12110.82020416 Element set: 714 Inclination: 099.1006 deg RA of node: 152.0265 deg Eccentricity: 0.0009868 Arg of perigee: 246.7991 deg Mean anomaly: 113.2624 deg Mean motion: 14.12724926 rev/day Decay rate: 9.0e-07 rev/day^2 Epoch rev: 59679 Checksum: 297
Satellite: NOAA-17 Catalog number: 27453 Epoch time: 12110.86096082 Element set: 675 Inclination: 098.3416 deg RA of node: 140.8333 deg Eccentricity: 0.0011282 Arg of perigee: 332.4343 deg Mean anomaly: 027.6724 deg Mean motion: 14.24417887 rev/day Decay rate: 2.10e-06 rev/day^2 Epoch rev: 51045 Checksum: 282
Satellite: NOAA-18 Catalog number: 28654 Epoch time: 12110.87456459 Element set: 150 Inclination: 099.0411 deg RA of node: 068.4959 deg Eccentricity: 0.0014074 Arg of perigee: 322.4032 deg Mean anomaly: 037.6624 deg Mean motion: 14.11633952 rev/day Decay rate: 1.18e-06 rev/day^2 Epoch rev: 35633 Checksum: 293
Satellite: NOAA-19 Catalog number: 33591 Epoch time: 12110.86936953 Element set: 342 Inclination: 098.8606 deg RA of node: 051.3928 deg Eccentricity: 0.0013812 Arg of perigee: 182.8822 deg Mean anomaly: 177.2744 deg Mean motion: 14.11324014 rev/day Decay rate: 3.46e-06 rev/day^2 Epoch rev: 16478 Checksum: 307
/EX SB KEPS @ AMSAT $ORB12110.M Orbital Elements 12110.MISC
HR AMSAT ORBITAL ELEMENTS FOR MANNED AND MISCELLANEOUS SATELLITES FROM WA5QGD FORT WORTH,TX April 19, 2012 Send SUBSCRIBE KEPS/UNSUBSCRIBE KEPS to majordomo@amsat.org only BID: ORB12110.M TO ALL RADIO AMATEURS BT
Satellite: HUBBLE Catalog number: 20580 Epoch time: 12110.27074257 Element set: 985 Inclination: 028.4694 deg RA of node: 169.0681 deg Eccentricity: 0.0003597 Arg of perigee: 152.7600 deg Mean anomaly: 207.3227 deg Mean motion: 15.02383503 rev/day Decay rate: 1.525e-05 rev/day^2 Epoch rev: 586 Checksum: 278
Satellite: ISS Catalog number: 25544 Epoch time: 12110.91545190 Element set: 405 Inclination: 051.6451 deg RA of node: 053.9680 deg Eccentricity: 0.0008016 Arg of perigee: 296.6509 deg Mean anomaly: 170.7543 deg Mean motion: 15.58471699 rev/day Decay rate: 1.4820e-04 rev/day^2 Epoch rev: 76893 Checksum: 310
Satellite: CO-58 Catalog number: 28895 Epoch time: 12109.62011386 Element set: 0154 Inclination: 097.9242 deg RA of node: 338.4866 deg Eccentricity: 0.0016995 Arg of perigee: 342.5695 deg Mean anomaly: 017.4929 deg Mean motion: 14.60563486 rev/day Decay rate: 4.85e-06 rev/day^2 Epoch rev: 34496 Checksum: 358
Satellite: FALCON Catalog number: 30776 Epoch time: 12110.57115020 Element set: 327 Inclination: 035.4335 deg RA of node: 274.7551 deg Eccentricity: 0.0001766 Arg of perigee: 265.1735 deg Mean anomaly: 094.8810 deg Mean motion: 15.07102837 rev/day Decay rate: 3.310e-05 rev/day^2 Epoch rev: 28140 Checksum: 258
Satellite: MAST Catalog number: 31126 Epoch time: 12109.97695035 Element set: 0441 Inclination: 097.8765 deg RA of node: 124.5394 deg Eccentricity: 0.0093040 Arg of perigee: 295.7252 deg Mean anomaly: 063.4365 deg Mean motion: 14.54106369 rev/day Decay rate: 5.39e-06 rev/day^2 Epoch rev: 26566 Checksum: 314
Satellite: CAPE1 Catalog number: 31130 Epoch time: 12109.75632775 Element set: 447 Inclination: 097.8860 deg RA of node: 120.7508 deg Eccentricity: 0.0100747 Arg of perigee: 309.3681 deg Mean anomaly: 049.8584 deg Mean motion: 14.52866836 rev/day Decay rate: 5.16e-06 rev/day^2 Epoch rev: 26514 Checksum: 315
Satellite: COMPASS Catalog number: 32787 Epoch time: 12110.33628089 Element set: 280 Inclination: 097.8057 deg RA of node: 172.9672 deg Eccentricity: 0.0014293 Arg of perigee: 251.5833 deg Mean anomaly: 108.3880 deg Mean motion: 14.83755217 rev/day Decay rate: 1.888e-05 rev/day^2 Epoch rev: 21508 Checksum: 317
Satellite: AAUSAT2 Catalog number: 32788 Epoch time: 12110.11605791 Element set: 270 Inclination: 097.8071 deg RA of node: 173.1015 deg Eccentricity: 0.0013713 Arg of perigee: 251.4872 deg Mean anomaly: 108.4921 deg Mean motion: 14.84053242 rev/day Decay rate: 1.318e-05 rev/day^2 Epoch rev: 21507 Checksum: 262
Satellite: DO-64 Catalog number: 32789 Epoch time: 12109.88288917 Element set: 0289 Inclination: 097.8183 deg RA of node: 174.6788 deg Eccentricity: 0.0013632 Arg of perigee: 249.4050 deg Mean anomaly: 110.5709 deg Mean motion: 14.85370847 rev/day Decay rate: 3.324e-05 rev/day^2 Epoch rev: 21507 Checksum: 344
Satellite: CO-66 Catalog number: 32791 Epoch time: 12109.22412501 Element set: 271 Inclination: 097.8063 deg RA of node: 171.6673 deg Eccentricity: 0.0014561 Arg of perigee: 255.6178 deg Mean anomaly: 104.3377 deg Mean motion: 14.83214479 rev/day Decay rate: 1.512e-05 rev/day^2 Epoch rev: 21485 Checksum: 295
Satellite: RS-30 Catalog number: 32953 Epoch time: 12110.61402917 Element set: 712 Inclination: 082.5038 deg RA of node: 331.5715 deg Eccentricity: 0.0019781 Arg of perigee: 075.7725 deg Mean anomaly: 284.5549 deg Mean motion: 12.43022442 rev/day Decay rate: 1.0e-07 rev/day^2 Epoch rev: 17728 Checksum: 278
Satellite: TACSAT-3 Catalog number: 35001 Epoch time: 12110.82554509 Element set: 960 Inclination: 040.4429 deg RA of node: 064.5758 deg Eccentricity: 0.0017231 Arg of perigee: 200.0432 deg Mean anomaly: 160.0195 deg Mean motion: 16.00603037 rev/day Decay rate: 5.02840e-03 rev/day^2 Epoch rev: 16523 Checksum: 244
Satellite: PHARMSAT Catalog number: 35002 Epoch time: 12110.93843261 Element set: 869 Inclination: 040.4619 deg RA of node: 077.2554 deg Eccentricity: 0.0001817 Arg of perigee: 174.4666 deg Mean anomaly: 185.6710 deg Mean motion: 15.73181182 rev/day Decay rate: 8.0186e-04 rev/day^2 Epoch rev: 16511 Checksum: 288
Satellite: METEOR-M Catalog number: 35865 Epoch time: 12110.60130959 Element set: 337 Inclination: 098.6601 deg RA of node: 166.0087 deg Eccentricity: 0.0001876 Arg of perigee: 205.8840 deg Mean anomaly: 154.2259 deg Mean motion: 14.21859647 rev/day Decay rate: -1.1e-07 rev/day^2 Epoch rev: 13427 Checksum: 291
Satellite: RS-38 Catalog number: 35869 Epoch time: 12110.34956326 Element set: 347 Inclination: 098.6558 deg RA of node: 165.7666 deg Eccentricity: 0.0003982 Arg of perigee: 215.0228 deg Mean anomaly: 145.0689 deg Mean motion: 14.22063972 rev/day Decay rate: 1.2e-07 rev/day^2 Epoch rev: 13425 Checksum: 317
Satellite: JUGNU Catalog number: 37839 Epoch time: 12109.81133472 Element set: 0131 Inclination: 019.9636 deg RA of node: 357.9427 deg Eccentricity: 0.0018458 Arg of perigee: 289.9100 deg Mean anomaly: 069.9300 deg Mean motion: 14.12044095 rev/day Decay rate: 6.19e-06 rev/day^2 Epoch rev: 02684 Checksum: 305
